• Processing (Info)

  • MPEC 2019-U166 : 2019 UK6

    The following Minor Planet Electronic Circular may be linked-to from your own Web pages, but must not otherwise be redistributed electronically.

    A form allowing access to any MPEC is at the bottom of this page.


    Read MPEC 2019-U165 Read MPEC 2019-U167


    M.P.E.C. 2019-U166                             Issued 2019 October 25, 21:43 UT
    
         The Minor Planet Electronic Circulars contain information on unusual
             minor planets and routine data on comets.  They are published
        on behalf of Division F of the International Astronomical Union by the
              Minor Planet Center, Smithsonian Astrophysical Observatory,
                              Cambridge, MA 02138, U.S.A.
    
                 Prepared using the Tamkin Foundation Computer Network
    
                                  MPC@CFA.HARVARD.EDU
                URL https://www.minorplanetcenter.net/    ISSN 1523-6714
    
                                    2019 UK6                                 
    
    
    Observations:
         K19U06K* C2019 10 24.07334 21 26 02.36 +18 13 03.0          21.4 GVEU166G96
         K19U06K  C2019 10 24.07864 21 26 02.67 +18 13 09.9          21.1 GVEU166G96
         K19U06K  C2019 10 24.08393 21 26 02.90 +18 13 16.6          20.8 GVEU166G96
         K19U06K  C2019 10 24.22910 21 26 10.77 +18 16 14.3          20.5 GVEU166I52
         K19U06K  C2019 10 24.23244 21 26 11.00 +18 16 18.8          20.6 GVEU166I52
         K19U06K  C2019 10 24.23577 21 26 11.18 +18 16 22.7          20.7 GVEU166I52
         K19U06K  C2019 10 25.18217 21 27 32.28 +18 37 01.7          20.9 GVEU166I52
         K19U06K  C2019 10 25.18523 21 27 32.48 +18 37 05.8          21.5 GVEU166I52
         K19U06K  C2019 10 25.18828 21 27 32.67 +18 37 09.6          21.7 GVEU166I52
         K19U06K  C2019 10 25.19134 21 27 32.92 +18 37 13.8          21.2 GVEU166I52
         K19U06K IC2019 10 25.76994021 28 28.80 +18 50 15.2          21.2 GVEU166L01
         K19U06K KC2019 10 25.77269021 28 29.01 +18 50 18.8          21.3 GVEU166L01
         K19U06K KC2019 10 25.77621321 28 29.26 +18 50 23.6          21.3 GVEU166L01
         K19U06K KC2019 10 25.77856021 28 29.41 +18 50 26.7          21.3 GVEU166L01
    
    Observer details:
    G96 Mt. Lemmon Survey.  Observer G. J. Leonard.  Measurers E. J. Christensen, 
       G. A. Farneth, D. C. Fuls, A. R. Gibbs, A. D. Grauer, H. Groeller, R. A. 
       Kowalski, S. M. Larson, G. J. Leonard, T. A. Pruyne, D. Rankin, R. L. Seaman,
        F. C. Shelly, K. W. Wierzchos.  1.5-m reflector + 10K CCD.
    I52 Steward Observatory, Mt. Lemmon Station.  Observers R. A. Kowalski, K. W. 
       Wierzchos.  Measurers E. J. Christensen, G. A. Farneth, D. C. Fuls, A. R. 
       Gibbs, A. D. Grauer, H. Groeller, R. A. Kowalski, S. M. Larson, G. J. 
       Leonard, T. A. Pruyne, D. Rankin, R. L. Seaman, F. C. Shelly, K. W. 
       Wierzchos.  1.0-m reflector + CCD.
    L01 Visnjan Observatory, Tican.  Observer K. Korlevic.  1.0-m f/2.9 reflector + 
       CCD.
    
    Orbital elements:
    2019 UK6                                                 Earth MOID = 0.0392 AU
    Epoch 2019 Apr. 27.0 TT = JDT 2458600.5                 Bell
    M 306.24690              (2000.0)            P               Q
    n   0.26772148     Peri.  162.65973     +0.65175812     -0.75363493
    a   2.3842250      Node   246.57683     +0.68438253     +0.63278046
    e   0.5717272      Incl.    5.32278     +0.32685150     +0.17782936
    P   3.68           H   23.8           G   0.15           U   8
    Residuals in seconds of arc
    191024 G96  0.1-  0.1+    191024 I52  0.0   0.0     191025 L01  0.1+  0.2+
    191024 G96  0.3+  0.2+    191025 I52  0.2-  0.0     191025 L01  0.2+  0.0
    191024 G96  0.3-  0.1+    191025 I52  0.1-  0.1+    191025 L01  0.1+  0.1-
    191024 I52  0.1-  0.5-    191025 I52  0.3-  0.0     191025 L01  0.2-  0.3-
    191024 I52  0.3+  0.0     191025 I52  0.4+  0.2+
    
    Ephemeris:
    2019 UK6                 a,e,i = 2.38, 0.57, 5                   q = 1.0211
    Date    TT    R. A. (2000) Decl.     Delta      r    Elong.  Phase     V
    2019 09 25    21 31 03.1 +12 43 38   0.2399  1.1968   139.9    32.6    22.5
    ...
    2019 10 10    21 20 10.4 +14 50 02   0.1789  1.1124   125.6    46.9    22.1
    ...
    2019 10 18    21 20 50.4 +16 27 04   0.1479  1.0767   119.3    53.8    21.8
    ...
    2019 10 24    21 25 55.6 +18 11 48   0.1247  1.0551   115.7    58.1    21.5
    2019 10 25    21 27 18.0 +18 33 16   0.1209  1.0519   115.3    58.8    21.4
    2019 10 26    21 28 51.4 +18 56 11   0.1170  1.0489   114.9    59.3    21.4
    ...
    2019 11 01    21 43 18.7 +21 53 50   0.09385 1.0340   113.7    61.5    20.9
    ...
    2019 11 09    22 28 40.8 +28 50 18   0.06431 1.0227   118.3    58.5    20.0
    ...
    2019 11 24    04 21 11.2 +33 07 35   0.04305 1.0293   166.1    13.3    17.8
    
    A. U. Tomatic                (C) Copyright 2019 MPC           M.P.E.C. 2019-U166
    


    Read MPEC 2019-U165 Read MPEC 2019-U167


    MPEC number:

    Enter an MPEC number in one of the following forms:

    • 1997-B01 (the full form)
    • J97B01 (the packed version of the full form)
    • B01 (the abbreviated form)